Location: Ellerstadt
(49.4644°N, 8.2615°E)
Time: 16:55:31
(UTC+00:00)

Altair - Pass Details

Date: 14 June 2021
Orbit: 1502 x 1682 km, 47.2° (Epoch: 02 August)

Event Time Altitude Azimuth Distance (km) Brightness Sun altitude
Rises 19:58:22 0° 288° (WNW) 4,855 11.5 -3.7°
Reaches altitude 10° 20:01:38 10° 283° (WNW) 3,888 10.7 -4.1°
Maximum altitude 20:10:51 44° 215° (SW) 2,178 8.3 -5.2°
Drops below altitude 10° 20:20:13 10° 148° (SSE) 3,938 9.0 -6.2°
Enters shadow 20:21:17 - 146° (SE) 4,247 9.1 -6.3°
